Powrót do katalogu

STARLINK-36336

AktywnyŁącznośćSSO
NORAD 67901·PAYLOAD·🇺🇸 United States

Wystrzelony Feb 21, 2026 z Vandenberg Space Force Base

Loading…

Następne Przeloty (najbliższe 24 godziny)

TLE

ŚwieżeSource: CelesTrak SupGP

Epoka: Sep 14, 2026, 22:45 UTC

1 67901C 26035Y   26257.94840278 -.00058399  00000+0 -18133-2 0  2573
2 67901  97.2844 189.8913 0001834  84.5755 264.3765 15.33459419    16

Śledź STARLINK-36336 w czasie rzeczywistym z AllMySat

Download on the App Store